Location: Unspecified
(0.0000°N, 0.0000°E)
Time: 06:02:54
(UTC+00:00)

TIROS 6 DEB - Pass Details

Date: 21 August 2024
Orbit: 609 x 625 km, 58.3° (Epoch: 04 September)

Event Time Altitude Azimuth Distance (km) Brightness Sun altitude
Exits shadow 04:06:11 16° 3° (N) 1,614 ? -28.5°
Drops below altitude 10° 04:07:11 10° 8° (N) 1,971 ? -28.3°
Sets 04:09:34 0° 16° (NNE) 2,870 ? -27.7°
